Regional Weather Roundup
Issued by NWS

Home | Current Version | Previous Version | Text Only | Print | Product List | Glossary Off
Versions: 1 2 3 4 5 6 7 8 9 10 11 12 13 14 15 16 17 18 19 20 21 22 23 24 25 26 27 28 29 30 31 32 33 34 35 36 37 38 39 40 41 42 43 44 45 46 47 48 49 50

000
ASUS43 KMPX 151410
RWRMN
WEATHER ROUNDUP FOR MINNESOTA
NATIONAL WEATHER SERVICE TWIN CITIES/CHANHASSEN MN
800 AM CST FRI DEC 15 2017


NOTE: "FAIR" INDICATES FEW OR NO CLOUDS BELOW 12,000 FEET WITH NO
SIGNIFICANT WEATHER AND/OR OBSTRUCTIONS TO VISIBILITY. N/A MEANS
CURRENT SKY AND/OR WEATHER CONDITIONS ARE NOT AVAILABLE.

MNZ060>063-068>070-151500-
   Twin Cities Metro

CITY           SKY/WX    TMP DP  RH WIND       PRES   REMARKS
TWIN CITIES    CLOUDY    23  20  88 NW5       29.89S WCI  17
ST PAUL        CLOUDY    22  18  85 N5        29.90F WCI  16
CRYSTAL        CLOUDY    22  15  75 CALM      29.88F
BLAINE         MOCLDY    21  18  86 NW3       29.88F
LAKEVILLE        N/A     21  19  93 CALM      29.88S
EDEN PRAIRIE   CLOUDY    22  19  89 CALM      29.88S
SOUTH ST PAUL  CLOUDY    24  19  83 CALM      29.89F
LAKE ELMO      CLOUDY    23  18  80 NW5       29.89F WCI  17
$$
MNZ001>005-007-008-013>017-022>024-027-028-151500-
   Northwest Minnesota

CITY           SKY/WX    TMP DP  RH WIND       PRES   REMARKS
BEMIDJI        FLURRIES   7   4  86 W3        29.83F
HALLOCK        FLURRIES  12  10  92 SE6       29.85F WCI   3
ROSEAU         CLOUDY     9   3  78 S3        29.85F
WARROAD        CLOUDY     7   3  85 SW3       29.85F
THIEF RVR FALL CLOUDY     9   7  92 S3        29.85F
CROOKSTON      LGT SNOW  16  12  86 SE3       29.88F
FOSSTON        CLOUDY     5   3  92 CALM      29.86S
DETROIT LAKES  CLOUDY    16  14  93 CALM      29.85F
MOORHEAD       MIX PCPN  18  14  86 CALM      29.88F
PARK RAPIDS    CLOUDY     6   3  87 CALM      29.84S
MAHNOMEN       FAIR      10   8  89 CALM      29.85F
$$
MNZ006-009>011-018-025>026-151500-
   North Central Minnesota

CITY           SKY/WX    TMP DP  RH WIND       PRES   REMARKS
BAUDETTE       CLOUDY     7   2  80 CALM      29.83F
FLAG ISLAND    CLOUDY     5   1  85 CALM      29.84F
INTL FALLS     CLOUDY     6   0  76 W5        29.84F WCI  -3
WASKISH        CLOUDY     7   3  85 CALM      29.86S
BIG FORK       CLOUDY     7   1  78 CALM      29.83F
LONGVILLE      CLOUDY    10   7  85 CALM      29.85S
GRAND RAPIDS   FLURRIES   7   3  84 N8        29.85F WCI  -6
CRANE LAKE     CLOUDY     7   1  78 CALM      29.85S
ORR            CLOUDY     7   0  72 NW6       29.80S WCI  -3
COOK           CLOUDY     7   1  78 W8        29.83S WCI  -6
WALKER         CLOUDY     7   3  85 N3        29.85S
$$
MNZ012-019>021-037-151500-
   Northeast Minnesota

CITY           SKY/WX    TMP DP  RH WIND       PRES   REMARKS
DULUTH         LGT SNOW  10   5  80 W9        29.81S WCI  -3
ELY            CLOUDY     7   1  78 NW7       29.80S WCI  -5
HIBBING        LGT SNOW   7   2  80 N8        29.82F WCI  -6
EVELETH        LGT SNOW   6   0  76 NW5       29.83S WCI  -3
DULUTH HARBOR  FLURRIES  16   9  73 NW9       29.89R WCI   4
TWO HARBORS    CLOUDY    14   7  73 NW3       29.82R
SILVER BAY     CLOUDY    10   3  72 NW5       29.80S WCI   2
GRAND MARAIS     N/A     12   3  67 VRB5      29.82F WCI   4
G MARAIS ARPRT PTCLDY     3  -2  78 NW7       29.71F HAZE    WCI  -9
$$
MNZ029>031-032-039>041-046>048-054>057-064-151500-
   West Central Minnesota

CITY           SKY/WX    TMP DP  RH WIND       PRES   REMARKS
FERGUS FALLS   CLOUDY    19  16  86 CALM      29.90F
WHEATON        FLURRIES  23  19  86 CALM      29.90F
MORRIS         CLOUDY    23  19  86 CALM      29.87S
ALEXANDRIA     CLOUDY    19  15  84 CALM      29.86S
ELBOW LAKE     CLOUDY    20  17  86 CALM      29.87F
WADENA         CLOUDY    10   9  92 NW5       29.85S WCI   2
GLENWOOD       CLOUDY    19  18  93 CALM      29.86S
APPLETON       LGT SNOW  27  23  86 CALM      29.88F
BENSON         CLOUDY    25  21  86 CALM      29.89S
ORTONVILLE     FLURRIES  25  21  86 CALM      29.87F
MADISON        FLURRIES  30  30 100 N6        29.87F WCI  24
WILLMAR        CLOUDY    27  23  86 CALM      29.88F
$$
MNZ033>034-036-042>043-049>051-058-059-151500-
   Central Minnesota

CITY           SKY/WX    TMP DP  RH WIND       PRES   REMARKS
ST CLOUD       CLOUDY    16  14  92 CALM      29.88S
SAUK CENTRE      N/A     17  14  86 CALM      29.87S
PAYNESVILLE    CLOUDY    23  21  93 CALM      29.87F
AITKIN         CLOUDY    12   7  79 CALM      29.84S
PINE RIVER     CLOUDY    10   7  85 CALM      29.88F
BRAINERD       CLOUDY    13   8  81 W6        29.85F WCI   4
STAPLES        CLOUDY     9   7  92 CALM      29.85F
LITTLE FALLS   CLOUDY     9   3  78 CALM      29.88S
LITCHFIELD     CLOUDY    25  23  93 CALM      29.88S
BUFFALO        CLOUDY    22  19  87 N6        29.90R WCI  14
MAPLE LAKE     MOCLDY    21  19  89 N5        29.89R WCI  15
HUTCHINSON     CLOUDY    26  24  91 CALM      29.88S
$$
MNZ037-044-045-052-053-151500-
   East Central Minnesota

CITY           SKY/WX    TMP DP  RH WIND       PRES   REMARKS
PRINCETON      MOCLDY    16  10  79 CALM      29.88S
MORA           FLURRIES  16  10  79 NW8       29.89S WCI   5
CAMBRIDGE      CLOUDY    18   9  68 CALM      29.88F
RUSH CITY      CLOUDY    15   9  78 CALM      29.89S
MOOSE LAKE     CLOUDY    12   5  73 CALM      29.85R
HINCKLEY       FLURRIES  18  10  73 CALM      29.88R
CLOQUET        CLOUDY    10   3  72 W7        29.83S WCI   0
MCGREGOR       CLOUDY    12   9  85 NW5       29.85F WCI   4
$$
MNZ071>073-080-081-089-090-097-098-151500-
   Southwest Minnesota

CITY           SKY/WX    TMP DP  RH WIND       PRES   REMARKS
MONTEVIDEO     CLOUDY    28  27  93 E3        29.88S
GRANITE FALLS  CLOUDY    31  29  90 W5        29.89S WCI  27
CANBY          CLOUDY    32  28  86 SW3       29.88F
MARSHALL       CLOUDY    31  27  85 W8        29.88F WCI  23
REDWOOD FALLS  CLOUDY    31  28  89 W7        29.88S WCI  24
OLIVIA         CLOUDY    30  28  93 NE5       29.86S WCI  25
PIPESTONE      MOCLDY    28  27  93 W9        29.87S WCI  20
WINDOM           N/A     30  18  59 W9        29.87F WCI  22
WORTHINGTON    FLURRIES  29  27  92 W12       29.89F WCI  19
JACKSON        CLOUDY    30  27  86 MISG      29.89F
SLAYTON        CLOUDY    30  27  90 W9        29.89S WCI  21
$$
MNZ065>067-074>077-082>085-091>093-151500-
   South Central Minnesota

CITY           SKY/WX    TMP DP  RH WIND       PRES   REMARKS
MANKATO        CLOUDY    27  27 100 CALM      29.88F
NEW ULM        CLOUDY    28  27  93 W3        29.88S
ST JAMES       CLOUDY    30  27  86 SW9       29.89F WCI  22
FAIRMONT       FLURRIES  30  26  85 W12       29.89F WCI  20
GLENCOE        CLOUDY    26  26 100 CALM      29.88S
FARIBAULT      LGT SNOW  25  25 100 CALM      29.88F
OWATONNA       LGT SNOW  27  25  93 SW6       29.87F WCI  20
WASECA         CLOUDY    27  25  93 CALM      29.89F
ALBERT LEA     CLOUDY    28  25  86 W7        29.87F WCI  21
$$
MNZ078>079-086>088-094>096-151500-
   Southeast Minnesota

CITY           SKY/WX    TMP DP  RH WIND       PRES   REMARKS
ROCHESTER      LGT SNOW  24  23  96 W10       29.86F FOG     WCI  14
RED WING       CLOUDY    25  18  74 CALM      29.89S
STANTON        CLOUDY    26  22  86 CALM      29.87F
DODGE CENTER   LGT SNOW  25  23  93 SW7       29.86F WCI  17
WINONA         CLOUDY    27  19  74 NW3       29.91F
PRESTON        LGT SNOW  23  21  92 SW7       29.88F WCI  15
$$
ABBREVIATIONS USED IN REMARKS
   TC - TEMPERATURES IN CELSIUS
  WCI - WIND CHILL INDEX
   HX - HEAT INDEX
  VSB - VISIBILITY
$$




USA.gov is the U.S. government's official web portal to all federal, state and local government web resources and services.